Location: Bermeries
(50.2863°N, 3.7551°E)
Time: 20:21:30
(UTC+00:00)

SL-4 R/B - Pass Details

Date: 23 May 2024
Orbit: 412 x 601 km, 51.6° (Epoch: 14 June)

Event Time Altitude Azimuth Distance (km) Brightness Sun altitude
Exits shadow 02:46:23 - 199° (SSW) 2,013 4.3 -8.2°
Reaches altitude 10° 02:46:46 10° 196° (SSW) 1,885 4.2 -8.2°
Maximum altitude 02:50:21 25° 140° (SE) 1,192 3.7 -7.8°
Drops below altitude 10° 02:54:02 10° 85° (E) 1,945 5.6 -7.4°
Sets 02:56:38 0° 72° (ENE) 2,859 6.9 -7.1°
